カタログに戻る

RASSVET-3 6

運用中科学PO
NORAD 68365·PAYLOAD·🇷🇺 Russia

打ち上げ Mar 23, 2026 から Plesetsk Cosmodrome

Loading…

次のパス (今後24時間)

TLE

最新Source: Space-Track

元期: Sep 14, 2026, 11:55 UTC

1 68365U 26061F   26257.49697382  .00003594  00000-0  17346-3 0  9998
2 68365  82.2909 283.6188 0000300  81.1024 279.0244 15.18389288 26969

AllMySatでRASSVET-3 6をリアルタイム追跡

Download on the App Store